H1 CPF 2 NER 2021 5 14 9 134 01 glonass107 H2 0706501 9107 32393 2021 5 14 0 0 0 2021 5 17 23 45 0 900 1 1 0 0 0 1 H9 10 0 59348 0.00000 0 7419181.580 13652285.157 20213148.043 10 0 59348 900.00000 0 5035036.419 12663964.104 21545664.550 10 0 59348 1800.00000 0 2453388.850 11809826.145 22459060.071 10 0 59348 2700.00000 0 -266647.212 11124893.879 22935537.710 10 0 59348 3600.00000 0 -3059952.076 10633463.414 22965808.001 10 0 59348 4500.00000 0 -5857867.204 10348107.143 22549271.448 10 0 59348 5400.00000 0 -8590813.646 10269189.031 21694031.109 10 0 59348 6300.00000 0 -11190953.468 10384912.796 20416734.843 10 0 59348 7200.00000 0 -13594783.504 10671900.624 18742250.235 10 0 59348 8100.00000 0 -15745553.775 11096277.611 16703178.428 10 0 59348 9000.00000 0 -17595410.077 11615215.634 14339216.284 10 0 59348 9900.00000 0 -19107171.715 12178870.894 11696379.391 10 0 59348 10800.00000 0 -20255670.792 12732632.573 8826101.240 10 0 59348 11700.00000 0 -21028597.873 13219586.823 5784226.417 10 0 59348 12600.00000 0 -21426819.619 13583091.139 2629918.000 10 0 59348 13500.00000 0 -21464156.417 13769349.479 -575498.967 10 0 59348 14400.00000 0 -21166630.788 13729878.577 -3769734.762 10 0 59348 15300.00000 0 -20571219.692 13423760.578 -6890748.977 10 0 59348 16200.00000 0 -19724164.750 12819586.431 -9877957.100 10 0 59348 17100.00000 0 -18678912.809 11897007.636 -12673405.905 10 0 59348 18000.00000 0 -17493774.609 10647830.757 -15222894.651 10 0 59348 18900.00000 0 -16229400.766 9076608.445 -17477020.608 10 0 59348 19800.00000 0 -14946181.470 7200701.870 -19392129.206 10 0 59348 20700.00000 0 -13701679.036 5049811.669 -20931151.102 10 0 59348 21600.00000 0 -12548200.549 2664996.448 -22064311.013 10 0 59348 22500.00000 0 -11530611.553 97219.041 -22769695.641 10 0 59348 23400.00000 0 -10684481.418 -2594519.851 -23033670.691 10 0 59348 24300.00000 0 -10034636.944 -5345384.275 -22851139.776 10 0 59348 25200.00000 0 -9594183.736 -8087151.816 -22225640.779 10 0 59348 26100.00000 0 -9364035.477 -10750808.355 -21169278.034 10 0 59348 27000.00000 0 -9332970.211 -13269182.663 -19702491.548 10 0 59348 27900.00000 0 -9478210.961 -15579512.959 -17853667.205 10 0 59348 28800.00000 0 -9766506.329 -17625840.031 -15658594.812 10 0 59348 29700.00000 0 -10155665.891 -19361128.462 -13159783.478 10 0 59348 30600.00000 0 -10596486.232 -20749028.510 -10405646.604 10 0 59348 31500.00000 0 -11034986.954 -21765205.533 -7449571.324 10 0 59348 32400.00000 0 -11414862.652 -22398181.643 -4348889.562 10 0 59348 33300.00000 0 -11680047.623 -22649654.505 -1163770.105 10 0 59348 34200.00000 0 -11777284.780 -22534279.681 2043947.109 10 0 59348 35100.00000 0 -11658589.801 -22078925.622 5211951.884 10 0 59348 36000.00000 0 -11283505.587 -21321432.452 8278676.297 10 0 59348 36900.00000 0 -10621050.602 -20308926.661 11184494.838 10 0 59348 37800.00000 0 -9651277.429 -19095762.705 13872888.307 10 0 59348 38700.00000 0 -8366374.159 -17741178.307 16291548.297 10 0 59348 39600.00000 0 -6771260.504 -16306762.443 18393400.152 10 0 59348 40500.00000 0 -4883651.798 -14853842.856 20137524.076 10 0 59348 41400.00000 0 -2733586.446 -13440903.345 21489956.184 10 0 59348 42300.00000 0 -362435.118 -12121139.738 22424353.562 10 0 59348 43200.00000 0 2178568.269 -10940257.463 22922510.364 10 0 59348 44100.00000 0 4830213.604 -9934603.330 22974714.784 10 0 59348 45000.00000 0 7527541.756 -9129709.999 22579939.893 10 0 59348 45900.00000 0 10202319.770 -8539313.992 21745864.606 10 0 59348 46800.00000 0 12785661.410 -8164888.163 20488724.269 10 0 59348 47700.00000 0 15210684.136 -7995707.731 18832993.681 10 0 59348 48600.00000 0 17415092.007 -8009446.370 16810908.661 10 0 59348 49500.00000 0 19343577.005 -8173276.448 14461835.385 10 0 59348 50400.00000 0 20949938.689 -8445426.078 11831499.894 10 0 59348 51300.00000 0 22198833.988 -8777126.286 8971092.948 10 0 59348 52200.00000 0 23067084.445 -9114864.989 5936267.949 10 0 59348 53100.00000 0 23544486.835 -9402851.476 2786052.060 10 0 59348 54000.00000 0 23634094.167 -9585586.174 -418307.722 10 0 59348 54900.00000 0 23351956.423 -9610426.079 -3614540.420 10 0 59348 55800.00000 0 22726333.209 -9430036.612 -6740564.806 10 0 59348 56700.00000 0 21796412.802 -9004625.601 -9735696.930 10 0 59348 57600.00000 0 20610592.668 -8303864.577 -12541827.607 10 0 59348 58500.00000 0 19224394.858 -7308415.989 -15104546.831 10 0 59348 59400.00000 0 17698104.642 -6011001.750 -17374193.542 10 0 59348 60300.00000 0 16094231.931 -4416967.888 -19306810.931 10 0 59348 61200.00000 0 14474901.987 -2544321.305 -20864989.478 10 0 59348 62100.00000 0 12899284.363 -423236.616 -22018582.407 10 0 59348 63000.00000 0 11421166.913 1904947.069 -22745280.794 10 0 59348 63900.00000 0 10086775.333 4389198.403 -23031038.142 10 0 59348 64800.00000 0 8932928.155 6970675.024 -22870337.133 10 0 59348 65700.00000 0 7985603.024 9584936.837 -22266293.962 10 0 59348 66600.00000 0 7258973.036 12164400.807 -21230598.508 10 0 59348 67500.00000 0 6754952.404 14640936.856 -19783291.386 10 0 59348 68400.00000 0 6463269.705 16948498.482 -17952381.755 10 0 59348 69300.00000 0 6362065.208 19025680.015 -15773312.534 10 0 59348 70200.00000 0 6418986.978 20818095.151 -13288282.455 10 0 59348 71100.00000 0 6592739.756 22280478.575 -10545437.054 10 0 59348 72000.00000 0 6835021.589 23378423.359 -7597943.341 10 0 59348 72900.00000 0 7092766.796 24089681.776 -4502965.270 10 0 59348 73800.00000 0 7310600.616 24404974.888 -1320559.168 10 0 59348 74700.00000 0 7433401.792 24328276.747 1887489.655 10 0 59348 75600.00000 0 7408864.499 23876561.109 5058866.532 10 0 59348 76500.00000 0 7189950.526 23079020.727 8131939.934 10 0 59348 77400.00000 0 6737127.116 21975791.772 11046962.710 10 0 59348 78300.00000 0 6020294.602 20616236.798 13747238.251 10 0 59348 79200.00000 0 5020320.944 19056858.326 16180228.360 10 0 59348 80100.00000 0 3730116.793 17358930.828 18298580.647 10 0 59348 81000.00000 0 2155204.064 15585950.746 20061055.048 10 0 59348 81900.00000 0 313752.325 13801011.801 21433331.101 10 0 59348 82800.00000 0 -1763920.153 12064215.996 22388679.987 10 0 59348 83700.00000 0 -4036361.307 10430229.029 22908488.143 10 0 59348 84600.00000 0 -6452475.060 8946082.633 22982622.201 10 0 59348 85500.00000 0 -8953424.715 7649315.883 22609628.059 10 0 59349 0.00000 0 -11474871.351 6566533.044 21796760.222 10 0 59349 900.00000 0 -13949454.582 5712438.097 20559840.584 10 0 59349 1800.00000 0 -16309412.283 5089385.156 18922949.730 10 0 59349 2700.00000 0 -18489230.230 4687464.004 16917956.121 10 0 59349 3600.00000 0 -20428211.547 4485114.601 14583892.740 10 0 59349 4500.00000 0 -22072858.090 4450244.683 11966193.164 10 0 59349 5400.00000 0 -23378964.670 4541801.527 9115802.213 10 0 59349 6300.00000 0 -24313338.555 4711730.409 6088178.741 10 0 59349 7200.00000 0 -24855072.561 4907235.718 2942210.566 10 0 59349 8100.00000 0 -24996318.963 5073247.892 -260936.758 10 0 59349 9000.00000 0 -24742532.542 5154990.687 -3459014.281 10 0 59349 9900.00000 0 -24112173.522 5100539.246 -6589903.091 10 0 59349 10800.00000 0 -23135884.008 4863259.960 -9592822.747 10 0 59349 11700.00000 0 -21855173.597 4404028.396 -12409510.837 10 0 59349 12600.00000 0 -20320670.406 3693131.255 -14985350.556 10 0 59349 13500.00000 0 -18590011.715 2711771.831 -17270424.674 10 0 59349 14400.00000 0 -16725463.128 1453115.342 -19220475.933 10 0 59349 15300.00000 0 -14791366.168 -77170.007 -20797756.000 10 0 59349 16200.00000 0 -12851520.731 -1860899.351 -21971747.523 10 0 59349 17100.00000 0 -10966611.142 -3867886.015 -22719746.383 10 0 59349 18000.00000 0 -9191782.302 -6056964.130 -23027293.863 10 0 59349 18900.00000 0 -7574465.780 -8377477.408 -22888451.253 10 0 59349 19800.00000 0 -6152545.144 -10771173.361 -22305912.210 10 0 59349 20700.00000 0 -4952935.721 -13174425.424 -21290950.949 10 0 59349 21600.00000 0 -3990636.737 -15520692.123 -19863207.189 10 0 59349 22500.00000 0 -3268294.325 -17743112.424 -18050311.605 10 0 59349 23400.00000 0 -2776292.881 -19777130.508 -15887358.267 10 0 59349 24300.00000 0 -2493370.331 -21563041.838 -13416233.420 10 0 59349 25200.00000 0 -2387731.162 -23048355.199 -10684812.547 10 0 59349 26100.00000 0 -2418610.329 -24189872.479 -7746040.317 10 0 59349 27000.00000 0 -2538222.155 -24955399.448 -4656910.451 10 0 59349 27900.00000 0 -2694011.953 -25325015.700 -1477364.569 10 0 59349 28800.00000 0 -2831115.237 -25291850.127 1730868.833 10 0 59349 29700.00000 0 -2894920.238 -24862328.875 4905472.824 10 0 59349 30600.00000 0 -2833624.839 -24055884.727 7984754.466 10 0 59349 31500.00000 0 -2600679.019 -22904139.535 10908847.142 10 0 59349 32400.00000 0 -2157008.358 -21449593.471 13620878.985 10 0 59349 33300.00000 0 -1472923.368 -19743875.818 16068084.094 10 0 59349 34200.00000 0 -529632.559 -17845630.537 18202834.322 10 0 59349 35100.00000 0 679706.234 -15818125.255 19983571.135 10 0 59349 36000.00000 0 2149442.162 -13726683.902 21375619.075 10 0 59349 36900.00000 0 3861419.833 -11636050.717 22351864.718 10 0 59349 37800.00000 0 5785501.943 -9607796.007 22893287.790 10 0 59349 38700.00000 0 7880605.627 -7697872.181 22989334.052 10 0 59349 39600.00000 0 10096210.248 -5954422.224 22638122.600 10 0 59349 40500.00000 0 12374274.537 -4415931.938 21846483.548 10 0 59349 41400.00000 0 14651483.721 -3109802.724 20629825.224 10 0 59349 42300.00000 0 16861733.062 -2051404.006 19011833.437 10 0 59349 43200.00000 0 18938744.366 -1243644.009 17024008.533 10 0 59349 44100.00000 0 20818706.125 -677075.746 14705049.229 10 0 59349 45000.00000 0 22442826.756 -330532.503 12100095.276 10 0 59349 45900.00000 0 23759694.038 -172264.586 9259843.871 10 0 59349 46800.00000 0 24727341.829 -161527.932 6239557.309 10 0 59349 47700.00000 0 25314937.459 -250556.041 3097981.742 10 0 59349 48600.00000 0 25504019.265 -386830.452 -103801.310 10 0 59349 49500.00000 0 25289232.746 -515552.413 -3303567.716 10 0 59349 50400.00000 0 24678535.046 -582210.058 -6439163.791 10 0 59349 51300.00000 0 23692859.987 -535131.526 -9449715.521 10 0 59349 52200.00000 0 22365258.573 -327915.349 -12276810.104 10 0 59349 53100.00000 0 20739551.890 78365.060 -14865626.624 10 0 59349 54000.00000 0 18868553.621 713276.186 -17165994.161 10 0 59349 54900.00000 0 16811937.065 1595538.100 -19133357.286 10 0 59349 55800.00000 0 14633836.120 2731999.744 -20729630.923 10 0 59349 56700.00000 0 12400280.242 4117119.061 -21923929.003 10 0 59349 57600.00000 0 10176569.799 5732970.154 -22693153.872 10 0 59349 58500.00000 0 8024700.384 7549777.712 -23022436.018 10 0 59349 59400.00000 0 6000942.120 9526957.194 -22905416.510 10 0 59349 60300.00000 0 4153673.310 11614618.460 -22344367.333 10 0 59349 61200.00000 0 2521557.229 13755471.349 -21350147.544 10 0 59349 62100.00000 0 1132136.490 15887055.217 -19941996.096 10 0 59349 63000.00000 0 902.265 17944200.980 -18147164.862 10 0 59349 63900.00000 0 -869123.872 19861624.282 -16000398.328 10 0 59349 64800.00000 0 -1487278.871 21576542.878 -13543269.063 10 0 59349 65700.00000 0 -1874623.230 23031209.705 -10823380.822 10 0 59349 66600.00000 0 -2062809.080 24175256.513 -7893453.835 10 0 59349 67500.00000 0 -2092499.204 24967749.961 -4810309.097 10 0 59349 68400.00000 0 -2011403.779 25378873.780 -1633770.673 10 0 59349 69300.00000 0 -1872017.818 25391166.142 1574492.908 10 0 59349 70200.00000 0 -1729155.198 25000259.525 4752165.792 10 0 59349 71100.00000 0 -1637383.921 24215091.178 7837497.064 10 0 59349 72000.00000 0 -1648471.793 23057574.423 10770504.107 10 0 59349 72900.00000 0 -1808951.399 21561743.794 13494143.190 10 0 59349 73800.00000 0 -2157908.498 19772409.197 15955423.972 10 0 59349 74700.00000 0 -2725088.477 17743375.024 18106445.612 10 0 59349 75600.00000 0 -3529402.286 15535298.530 19905333.925 10 0 59349 76500.00000 0 -4577896.300 13213276.886 21317060.983 10 0 59349 77400.00000 0 -5865230.980 10844263.856 22314130.928 10 0 59349 78300.00000 0 -7373691.707 8494423.967 22877118.550 10 0 59349 79200.00000 0 -9073732.700 6226534.646 22995050.045 10 0 59349 80100.00000 0 -10925032.340 4097544.701 22665618.500 10 0 59349 81000.00000 0 -12878016.673 2156390.770 21895229.865 10 0 59349 81900.00000 0 -14875788.052 442162.432 20698878.447 10 0 59349 82800.00000 0 -16856378.623 -1017307.953 19099854.260 10 0 59349 83700.00000 0 -18755234.615 -2206372.646 17129287.872 10 0 59349 84600.00000 0 -20507827.472 -3121975.501 14825541.496 10 0 59349 85500.00000 0 -22052282.297 -3773522.707 12233458.326 10 0 59350 0.00000 0 -23331913.265 -4182224.286 9403484.864 10 0 59350 900.00000 0 -24297559.215 -4379935.670 6390683.305 10 0 59350 1800.00000 0 -24909621.944 -4407549.846 3253654.610 10 0 59350 2700.00000 0 -25139720.068 -4313009.482 53392.623 10 0 59350 3600.00000 0 -24971890.823 -4149024.695 -3147906.974 10 0 59350 4500.00000 0 -24403288.261 -3970594.148 -6288059.247 10 0 59350 5400.00000 0 -23444349.612 -3832435.528 -9306099.982 10 0 59350 6300.00000 0 -22118423.170 -3786434.904 -12143469.162 10 0 59350 7200.00000 0 -20460874.015 -3879223.317 -14745144.681 10 0 59350 8100.00000 0 -18517705.584 -4149983.317 -17060704.532 10 0 59350 9000.00000 0 -16343755.185 -4628578.082 -19045297.321 10 0 59350 9900.00000 0 -14000539.077 -5334081.932 -20660502.957 10 0 59350 10800.00000 0 -11553836.878 -6273774.061 -21875067.858 10 0 59350 11700.00000 0 -9071115.465 -7442637.827 -22665501.465 10 0 59350 12600.00000 0 -6618898.800 -8823386.850 -23016523.536 10 0 59350 13500.00000 0 -4260191.899 -10387017.343 -22921354.444 10 0 59350 14400.00000 0 -2052064.651 -12093864.367 -22381843.537 10 0 59350 15300.00000 0 -43494.444 -13895118.878 -21408433.352 10 0 59350 16200.00000 0 1726444.211 -15734743.433 -20019960.352 10 0 59350 17100.00000 0 3229969.222 -17551707.907 -18243295.642 10 0 59350 18000.00000 0 4451502.914 -19282453.110 -16112831.922 10 0 59350 18900.00000 0 5388069.530 -20863480.518 -13669825.715 10 0 59350 19800.00000 0 6049162.469 -22233960.857 -10961606.608 10 0 59350 20700.00000 0 6456087.348 -23338252.867 -8040667.864 10 0 59350 21600.00000 0 6640808.908 -24128226.923 -4963655.166 10 0 59350 22500.00000 0 6644350.566 -24565296.023 -1790272.461 10 0 59350 23400.00000 0 6514814.276 -24622068.190 1417874.208 10 0 59350 24300.00000 0 6305104.575 -24283550.208 4598472.535 10 0 59350 25200.00000 0 6070453.316 -23547851.171 7689716.019 10 0 59350 26100.00000 0 5865850.277 -22426355.048 10631508.320 10 0 59350 27000.00000 0 5743489.008 -20943353.968 13366635.982 10 0 59350 27900.00000 0 5750336.824 -19135156.556 15841886.183 10 0 59350 28800.00000 0 5925932.691 -17048707.879 18009087.142 10 0 59350 29700.00000 0 6300507.172 -14739778.128 19826050.519 10 0 59350 30600.00000 0 6893505.049 -12270795.281 21257397.127 10 0 59350 31500.00000 0 7712574.118 -9708412.076 22275249.582 10 0 59350 32400.00000 0 8753064.012 -7120908.619 22859778.310 10 0 59350 33300.00000 0 9998057.315 -4575538.800 22999590.209 10 0 59350 34200.00000 0 11418932.663 -2135931.039 22691952.315 10 0 59350 35100.00000 0 12976437.126 140348.558 21942846.112 10 0 59350 36000.00000 0 14622223.560 2203969.460 20766851.329 10 0 59350 36900.00000 0 16300788.904 4015656.250 19186861.422 10 0 59350 37800.00000 0 17951732.371 5547579.270 17233636.196 10 0 59350 38700.00000 0 19512238.874 6784259.310 14945200.200 10 0 59350 39600.00000 0 20919683.262 7722949.639 12366098.677 10 0 59350 40500.00000 0 22114245.751 8373480.846 9546525.722 10 0 59350 41400.00000 0 23041428.329 8757576.652 6541341.856 10 0 59350 42300.00000 0 23654365.953 8907671.126 3409000.696 10 0 59350 43200.00000 0 23915835.076 8865278.955 210406.166 10 0 59350 44100.00000 0 23799874.848 8678989.181 -2992276.880 10 0 59350 45000.00000 0 23292952.765 8402168.667 -6136834.732 10 0 59350 45900.00000 0 22394625.915 8090473.665 -9162215.469 10 0 59350 46800.00000 0 21117670.299 7799275.659 -12009714.275 10 0 59350 47700.00000 0 19487673.145 7581110.990 -14624110.167 10 0 59350 48600.00000 0 17542105.656 7483262.321 -16954732.206 10 0 59350 49500.00000 0 15328915.218 7545574.150 -18956435.033 10 0 59350 50400.00000 0 12904696.010 7798594.299 -20590465.407 10 0 59350 51300.00000 0 10332514.122 8262119.431 -21825203.968 10 0 59350 52200.00000 0 7679477.268 8944205.538 -22636768.881 10 0 59350 53100.00000 0 5014149.433 9840684.841 -23009470.654 10 0 59350 54000.00000 0 2403916.770 10935209.484 -22936110.276 10 0 59350 54900.00000 0 -87587.232 12199820.586 -22418115.536 10 0 59350 55800.00000 0 -2402891.816 13596019.479 -21465513.221 10 0 59350 56700.00000 0 -4492835.764 15076297.223 -20096737.720 10 0 59350 57600.00000 0 -6318363.244 16586059.534 -18338279.361 10 0 59350 58500.00000 0 -7851895.266 18065867.720 -16224178.624 10 0 59350 59400.00000 0 -9078220.815 19453902.916 -13795375.127 10 0 59350 60300.00000 0 -9994871.434 20688551.439 -11098922.975 10 0 59350 61200.00000 0 -10611964.238 21711003.488 -8187086.749 10 0 59350 62100.00000 0 -10951520.450 22467756.520 -5116334.782 10 0 59350 63000.00000 0 -11046288.457 22912918.008 -1946248.515 10 0 59350 63900.00000 0 -10938121.152 23010210.331 1261631.187 10 0 59350 64800.00000 0 -10675976.283 22734592.858 4444998.457 10 0 59350 65700.00000 0 -10313624.491 22073431.772 7541994.292 10 0 59350 66600.00000 0 -9907162.269 21027167.249 10492411.841 10 0 59350 67500.00000 0 -9512435.531 19609448.625 13238871.194 10 0 59350 68400.00000 0 -9182483.381 17846730.489 15727940.317 10 0 59350 69300.00000 0 -8965110.945 15777345.496 17911179.687 10 0 59350 70200.00000 0 -8900694.726 13450091.714 19746089.875 10 0 59350 71100.00000 0 -9020314.085 10922392.726 21196943.295 10 0 59350 72000.00000 0 -9344288.678 8258106.777 22235483.624 10 0 59350 72900.00000 0 -9881184.438 5525075.919 22841479.173 10 0 59350 73800.00000 0 -10627330.894 2792516.945 23003119.364 10 0 59350 74700.00000 0 -11566870.940 128362.618 22717246.520 10 0 59350 75600.00000 0 -12672341.664 -2403336.400 21989418.440 10 0 59350 76500.00000 0 -13905762.367 -4744841.089 20833800.462 10 0 59350 77400.00000 0 -15220184.411 -6846884.224 19272889.040 10 0 59350 78300.00000 0 -16561637.924 -8670471.771 17337072.153 10 0 59350 79200.00000 0 -17871393.561 -10188251.185 15064035.006 10 0 59350 80100.00000 0 -19088443.973 -11385390.399 12498022.692 10 0 59350 81000.00000 0 -20152100.286 -12259932.054 9688974.272 10 0 59350 81900.00000 0 -21004593.867 -12822609.605 6691545.411 10 0 59350 82800.00000 0 -21593573.322 -13096134.622 3564039.097 10 0 59350 83700.00000 0 -21874391.105 -13113987.050 367265.808 10 0 59350 84600.00000 0 -21812083.031 -12918761.110 -2836644.073 10 0 59350 85500.00000 0 -21382957.055 -12560138.263 -5985451.730 10 0 59351 0.00000 0 -20575724.373 -12092574.218 -9018021.110 10 0 59351 900.00000 0 -19392124.848 -11572799.036 -11875506.276 10 0 59351 1800.00000 0 -17847021.756 -11057236.136 -14502490.683 10 0 59351 2700.00000 0 -15967960.115 -10599450.764 -16848057.586 10 0 59351 3600.00000 0 -13794209.010 -10247734.435 -18866770.436 10 0 59351 4500.00000 0 -11375326.712 -10042927.926 -20519545.174 10 0 59351 5400.00000 0 -8769308.703 -10016573.680 -21774398.459 10 0 59351 6300.00000 0 -6040395.029 -10189475.009 -22607058.374 10 0 59351 7200.00000 0 -3256627.468 -10570722.117 -23001426.769 10 0 59351 8100.00000 0 -487256.880 -11157225.564 -22949885.239 10 0 59351 9000.00000 0 2199893.009 -11933776.638 -22453439.453 10 0 59351 9900.00000 0 4740997.380 -12873632.309 -21521699.400 10 0 59351 10800.00000 0 7078632.532 -13939600.770 -20172695.944 10 0 59351 11700.00000 0 9163910.307 -15085582.849 -18432536.846 10 0 59351 12600.00000 0 10958257.310 -16258505.532 -16334908.269 10 0 59351 13500.00000 0 12434766.171 -17400567.590 -13920430.555 10 0 59351 14400.00000 0 13579063.488 -18451703.976 -11235879.747 10 0 59351 15300.00000 0 14389658.851 -19352166.159 -8333288.965 10 0 59351 16200.00000 0 14877760.963 -20045110.470 -5268946.224 10 0 59351 17100.00000 0 15066568.856 -20479085.527 -2102307.388 10 0 59351 18000.00000 0 14990068.281 -20610313.737 1105154.950 10 0 59351 18900.00000 0 14691384.169 -20404670.155 4291144.448 10 0 59351 19800.00000 0 14220758.874 -19839274.271 7393752.577 10 0 59351 20700.00000 0 13633241.767 -18903626.486 10352664.732 10 0 59351 21600.00000 0 12986188.187 -17600239.861 13110337.053 10 0 59351 22500.00000 0 12336673.892 -15944739.122 15613120.489 10 0 59351 23400.00000 0 11738934.864 -13965421.283 17812309.612 10 0 59351 24300.00000 0 11241941.258 -11702294.951 19665095.370 10 0 59351 25200.00000 0 10887208.612 -9205637.299 21135402.853 10 0 59351 26100.00000 0 10706939.394 -6534128.121 22194597.482 10 0 59351 27000.00000 0 10722573.883 -3752638.051 22822045.755 10 0 59351 27900.00000 0 10943812.101 -929762.553 23005519.565 10 0 59351 28800.00000 0 11368148.461 1864795.980 22741436.136 10 0 59351 29700.00000 0 11980939.186 4562889.410 22034928.906 10 0 59351 30600.00000 0 12755999.922 7100517.944 20899747.887 10 0 59351 31500.00000 0 13656708.580 9420249.380 19357991.382 10 0 59351 32400.00000 0 14637566.967 11473363.288 17439674.207 10 0 59351 33300.00000 0 15646155.345 13221631.339 15182140.723 10 0 59351 34200.00000 0 16625397.261 14638660.187 12629334.203 10 0 59351 35100.00000 0 17516038.800 15710741.876 9830936.860 10 0 59351 36000.00000 0 18259237.204 16437177.372 6841397.534 10 0 59351 36900.00000 0 18799149.086 16830061.096 3718866.479 10 0 59351 37800.00000 0 19085408.468 16913537.136 524058.508 10 0 59351 38700.00000 0 19075389.555 16722560.100 -2680932.751 10 0 59351 39600.00000 0 18736158.358 16301214.473 -5833845.681 10 0 59351 40500.00000 0 18046030.585 15700664.839 -8873462.471 10 0 59351 41400.00000 0 16995669.931 14976824.767 -11740797.975 10 0 59351 42300.00000 0 15588680.491 14187843.649 -14380242.198 10 0 59351 43200.00000 0 13841668.295 13391518.133 -16740634.444 10 0 59351 44100.00000 0 11783769.271 12642737.491 -18776248.665 10 0 59351 45000.00000 0 9455663.202 11991070.390 -20447671.536 10 0 59351 45900.00000 0 6908114.483 11478594.191 -21722557.178 10 0 59351 46800.00000 0 4200099.858 11138057.393 -22576244.941 10 0 59351 47700.00000 0 1396600.286 10991451.688 -22992229.251 10 0 59351 48600.00000 0 -1433852.433 11049052.865 -22962473.390 10 0 59351 49500.00000 0 -4221773.761 11308970.251 -22487561.783 10 0 59351 50400.00000 0 -6899362.838 11757223.318 -21576688.229 10 0 59351 51300.00000 0 -9403069.388 12368342.219 -20247480.326 10 0 59351 52200.00000 0 -11675986.148 13106467.396 -18525663.141 10 0 59351 53100.00000 0 -13669968.711 13926902.657 -16444568.028 10 0 59351 54000.00000 0 -15347395.921 14778057.240 -14044495.203 10 0 59351 54900.00000 0 -16682498.417 15603695.982 -11371941.419 10 0 59351 55800.00000 0 -17662200.689 16345403.776 -8478706.831 10 0 59351 56700.00000 0 -18286441.859 16945160.958 -5420897.387 10 0 59351 57600.00000 0 -18567961.992 17347921.218 -2257841.384 10 0 59351 58500.00000 0 -18531563.199 17504083.347 949059.063 10 0 59351 59400.00000 0 -18212876.697 17371751.914 4137519.541 10 0 59351 60300.00000 0 -17656687.828 16918690.685 7245584.562 10 0 59351 61200.00000 0 -16914889.820 16123885.114 10212834.538 10 0 59351 62100.00000 0 -16044152.855 14978646.606 12981564.561 10 0 59351 63000.00000 0 -15103407.142 13487210.419 15497911.551 10 0 59351 63900.00000 0 -14151246.676 11666800.460 17712907.191 10 0 59351 64800.00000 0 -13243363.701 9547156.611 19583435.763 10 0 59351 65700.00000 0 -12430122.609 7169542.920 21073077.856 10 0 59351 66600.00000 0 -11754376.035 4585276.888 22152823.237 10 0 59351 67500.00000 0 -11249615.625 1853840.218 22801638.902 10 0 59351 68400.00000 0 -10938535.693 -959351.078 23006881.156 10 0 59351 69300.00000 0 -10832070.492 -3785424.862 22764543.640 10 0 59351 70200.00000 0 -10928945.760 -6554676.689 22079336.469 10 0 59351 71100.00000 0 -11215763.411 -9199230.462 20964594.857 10 0 59351 72000.00000 0 -11667615.691 -11655625.417 19442018.945 10 0 59351 72900.00000 0 -12249202.679 -13867222.104 17541249.821 10 0 59351 73800.00000 0 -12916405.686 -15786327.521 15299289.908 10 0 59351 74700.00000 0 -13618249.718 -17375951.233 12759779.065 10 0 59351 75600.00000 0 -14299171.636 -18611119.898 9972140.613 10 0 59351 76500.00000 0 -14901497.594 -19479696.159 6990614.136 10 0 59351 77400.00000 0 -15368024.425 -19982668.712 3873194.399 10 0 59351 78300.00000 0 -15644595.217 -20133902.778 680497.530 10 0 59351 79200.00000 0 -15682559.580 -19959362.962 -2525422.825 10 0 59351 80100.00000 0 -15441014.103 -19495842.730 -5682285.632 10 0 59351 81000.00000 0 -14888727.951 -18789255.533 -8728794.764 10 0 59351 81900.00000 0 -14005671.971 -17892560.907 -11605829.523 10 0 59351 82800.00000 0 -12784086.660 -16863414.035 -14257589.935 10 0 59351 83700.00000 0 -11229043.842 -15761638.532 -16632674.750 10 0 59351 84600.00000 0 -9358478.187 -14646629.210 -18685071.590 10 0 59351 85500.00000 0 -7202687.037 -13574794.083 -20375040.693 99